| time (UTC) | temp C | wind direction | speed KPH | gust KPH | rain 1hr cm | rain 24hr cm | rain mn cm | humidity % | barometer mb |
| 20260503010404 | 25 | 271 | 0.0 | 6.4 | 0.00 | 0.00 | 0.00 | 48 | 1012.4 |
| 20260503005337 | 25 | 277 | 0.0 | 12.9 | 0.00 | 0.00 | 0.00 | 49 | 1012.5 |
| 20260503004410 | 25 | 270 | 0.0 | 14.5 | 0.00 | 0.00 | 0.00 | 49 | 1012.7 |
| 20260503003330 | 25 | 271 | 0.0 | 3.2 | 0.00 | 0.00 | 0.00 | 50 | 1012.7 |
| 20260503002342 | 25 | 277 | 1.6 | 14.5 | 0.00 | 0.00 | 0.00 | 50 | 1012.6 |
| 20260503001354 | 26 | 269 | 0.0 | 6.4 | 0.00 | 0.00 | 0.00 | 49 | 1012.6 |
| 20260503000404 | 25 | 271 | 0.0 | 3.2 | 0.00 | 0.00 | 0.00 | 51 | 1012.7 |
| 20260502235333 | 25 | 275 | 0.0 | 14.5 | 0.00 | 0.00 | 0.00 | 52 | 1012.8 |
| 20260502234343 | 24 | 299 | 0.0 | 14.5 | 0.00 | 0.00 | 0.00 | 54 | 1012.8 |
| 20260502233324 | 24 | 277 | 0.0 | 12.9 | 0.00 | 0.00 | 0.00 | 54 | 1012.9 |
| 20260502232332 | 24 | 272 | 4.8 | 16.1 | 0.00 | 0.00 | 0.00 | 54 | 1013.2 |
| 20260502231359 | 24 | 274 | 1.6 | 12.9 | 0.00 | 0.00 | 0.00 | 55 | 1013.5 |
| 20260502230331 | 24 | 274 | 0.0 | 14.5 | 0.00 | 0.00 | 0.00 | 54 | 1013.6 |
| 20260502225325 | 24 | 289 | 1.6 | 11.3 | 0.00 | 0.00 | 0.00 | 55 | 1013.7 |
| 20260502224339 | 24 | 267 | 1.6 | 12.9 | 0.00 | 0.00 | 0.00 | 54 | 1013.8 |
| 20260502223333 | 23 | 307 | 1.6 | 14.5 | 0.00 | 0.00 | 0.00 | 56 | 1013.7 |
| 20260502222344 | 23 | 268 | 3.2 | 14.5 | 0.00 | 0.00 | 0.00 | 54 | 1013.9 |
| 20260502221325 | 24 | 254 | 1.6 | 14.5 | 0.00 | 0.00 | 0.00 | 54 | 1013.9 |
| 20260502220335 | 23 | 269 | 1.6 | 14.5 | 0.00 | 0.00 | 0.00 | 55 | 1013.9 |
| 20260502215342 | 23 | 278 | 1.6 | 11.3 | 0.00 | 0.00 | 0.00 | 55 | 1014.1 |
| 20260502214329 | 23 | 261 | 0.0 | 12.9 | 0.00 | 0.00 | 0.00 | 57 | 1014.3 |
| 20260502213339 | 22 | 269 | 1.6 | 16.1 | 0.00 | 0.00 | 0.00 | 58 | 1014.3 |
| 20260502212411 | 22 | 294 | 0.0 | 12.9 | 0.00 | 0.00 | 0.00 | 58 | 1014.5 |